Location: Biharia
(46.4333°N, 22.8000°E)
Time: 03:21:07
(UTC+00:00)

Cosmos 494 Rocket - Pass Details

Date: 30 May 2022
Orbit: 742 x 770 km, 74.1° (Epoch: 05 July)

Event Time Altitude Azimuth Distance (km) Brightness Sun altitude
Rises 23:30:03 0° 321° (NW) 3,190 7.7 -20.2°
Reaches altitude 10° 23:33:30 10° 297° (WNW) 2,261 6.5 -20.0°
Maximum altitude 23:36:04 14° 266° (W) 1,990 5.9 -19.9°
Enters shadow 23:36:29 14° 261° (W) 1,997 5.9 -19.9°
